1st Responders/1st Detectors/Storm Spotters Weather Summary for Nelson County, KY

Forecast Maps


Reg. NEXRAD Animation


National Fire Danger: Day 1 & 2 Map

Current NWS Watch/Warnings

SPC Convective Day 1 Outlook


Day 2 Outlook

(Click images to enlarge|Page will refresh every 5 minutes)
UK Ag. Weather Center Desktop Severe Weather Service[HERE]
Nelson County, KY Hazardous Weather Outlook Webcast
(9 AM to 9 PM Mon-Fri)
[Fast]
[Dial-up]


UKAWC 1st Detectors/1st Responders Precision Weather Forecast For NELSON County, Kentucky
(based on the NWS County Digital Forecast)

ISSUED AT 18:00 UTC ON SUNDAY JUN 24 2018
DAY SUNDAY
EDT 3HR 3P 4P 5P 6P 7P
MAX/MIN -- -- -- -- 86°
TEMP 86° 86° 86° 85° 83°
SKY COVER 48% 48% 48% 46% 45%
Clouds
DEW PT 70° 70° 70° 70° 70°
RH 59% 56% 57% 58% 64%
POP 12HR -- -- -- -- --
RAIN/SNOW (liq.equ) -- -- -- -- --
SNOWFALL -- -- -- -- --
WIND SPEED(MPH) 7 7 7 6 5
WIND Gust(MPH) 10 9 8 7 6
WIND DIR W W W NW NW
DEW -- -- -- -- --
HeatIndex 92 92 92 90 88
Rain Showers -- -- -- -- --
Thunder Storm -- -- -- -- --
WIND CHILL -- -- -- -- --
SPRAY COND
DRY COND
LIVESTOCK HEATSTRESS 79.87 79.42 79.57 78.95 78.21



DAY MONDAY TUESDAY WEDNESDAY THURSDAY FRIDAY SATURDAY
EDT 6HR 8P 9P 10P 11P MIDN 1A 2A 3A 4A 5A 6A 7A 8A 9A 10A 11A NOON 1P 2P 3P 4P 5P 6P 7P 8P 9P 10P 11P MIDN 1A 2A 5A 8A 11A 2P 5P 8P 2A 8A 2P 8P 2A 8A 2P 8P 2A 8A 2P 8P 2A 8A 2P 8P
MAX/MIN -- -- -- -- -- -- -- -- -- -- -- -- 68° -- -- -- -- -- -- -- -- -- -- 83° -- -- -- -- -- -- -- -- 68° -- -- 88° -- -- 72° 86° -- -- 72° 90° -- -- 72° 92° -- -- 74° 92° --
TEMP 81° 79° 76° 74° 72° 72° 72° 70° 70° 68° 68° 68° 70° 72° 76° 77° 79° 81° 83° 83° 83° 83° 83° 83° 81° 79° 74° 72° 70° 70° 70° 68° 70° 81° 86° 88° 81° 74° 74° 86° 81° 76° 74° 90° 83° 74° 74° 90° 83° 76° 76° 90° 85°
SKY COVER 44% 46% 49% 52% 60% 68% 76% 80% 85% 89% 86% 83% 81% 80% 79% 78% 78% 79% 79% 75% 71% 67% 64% 62% 59% 59% 58% 58% 61% 64% 67% 58% 76% 66% 60% 65% 59% 53% 58% 58% 42% 35% 33% 40% 50% 40% 34% 33% 33% 29% 34% 34% 41%
Clouds
DEW PT 72° 70° 70° 70° 68° 68° 68° 67° 67° 67° 67° 67° 67° 68° 68° 70° 70° 70° 70° 70° 70° 70° 70° 70° 70° 68° 68° 67° 67° 67° 67° 67° 68° 72° 74° 74° 74° 70° 70° 74° 72° 72° 72° 74° 74° 72° 72° 74° 74° 72° 72° 74° 72°
RH 71% 73% 78% 84% 86% 89% 90% 90% 93% 96% 97% 96% 92% 87% 79% 76% 73% 69% 67% 66% 62% 62% 62% 64% 66% 71% 81% 83% 90% 93% 93% 96% 93% 76% 65% 63% 79% 90% 87% 65% 74% 87% 90% 57% 74% 89% 90% 57% 74% 87% 90% 57% 67%
POP 12HR 10% -- -- -- -- -- -- -- -- -- -- -- 67% -- -- -- -- -- -- -- -- -- -- -- 67% -- -- -- -- -- -- -- 12% -- -- -- 48% -- 32% -- 39% -- 13% -- 24% -- 19% -- 6% -- 8% -- 13%
RAIN/SNOW (liq.equ) 0.00in -- -- -- -- -- 0.00in -- -- -- -- -- 0.14in -- -- -- -- -- 0.20in -- -- -- -- -- 0.07in -- -- -- -- -- 0.00in -- 0.00in -- 0.09in -- 0.05in -- -- -- -- -- -- -- -- -- -- -- -- -- -- -- --
SNOWFALL 0in -- -- -- -- -- 0in -- -- -- -- -- 0in -- -- -- -- -- 0in -- -- -- -- -- 0in -- -- -- -- -- 0in -- 0in -- 0in -- 0in -- -- -- -- -- -- -- -- -- -- -- -- -- -- -- --
WIND SPEED(MPH) 2 2 2 2 2 2 2 2 2 2 2 5 5 5 6 6 6 6 6 6 7 7 7 6 6 6 5 5 5 2 2 2 5 6 7 8 7 6 9 14 10 6 5 7 5 2 5 6 5 2 2 6 5
WIND DIR NW N NE E E E E E E NE E E E E E E E E E E E E E E E E E E E E E SE SE S SW SW SW SW S SW SW W SW W SW SW S SW S S S S SW
HeatIndex 86 83 76 74 72 72 72 70 70 68 68 68 70 72 76 77 83 86 87 87 88 88 88 87 85 79 74 72 70 70 70 68 70 85 95 96 86 74 74 95 87 76 74 100 89 74 74 100 92 76 76 100 91
Rain Showers -- -- -- -- Slight Chance Chance Chance Chance Likely Likely Likely Likely Likely Likely Likely Likely Likely Chance Chance Chance Chance Chance Slight Chance Slight Chance -- -- -- -- -- -- -- -- Chance Chance Chance Chance Chance Chance Chance Chance -- -- -- Slight Chance Slight Chance -- -- -- -- -- -- -- --
Thunder Storm -- -- -- -- Slight Chance Slight Chance Chance Chance Chance Chance Chance Chance Chance Chance Chance Chance Chance Chance Chance Chance Chance Chance Slight Chance Slight Chance -- -- -- -- -- -- -- -- Chance Chance Chance Chance Chance Chance Chance Chance -- -- -- Slight Chance Slight Chance -- -- -- -- -- -- -- --
WIND CHILL -- -- -- -- -- -- -- -- -- -- -- -- -- -- -- -- -- -- -- -- -- -- -- -- -- -- -- -- -- -- -- -- -- -- -- -- -- -- -- -- -- -- -- -- -- -- -- -- -- -- -- -- --
SPRAY COND
DRY COND
LIVESTOCK HEATSTRESS 77.46 76.00 73.92 72.66 70.98 71.20 71.27 69.38 69.57 67.80 67.85 67.80 69.51 71.06 74.01 74.60 76.00 77.21 78.61 78.47 77.94 77.94 77.94 78.21 76.85 75.78 72.41 70.77 69.38 69.57 69.57 67.80 69.57 78.07 80.76 82.06 78.44 73.16 72.91 80.76 77.83 74.77 73.16 82.62 79.54 73.08 73.16 82.62 79.54 74.77 75.05 82.62 80.24

Click on individual weather variable above in left-hand column (ie., TEMP, RH, QPF 12HR) to view state forecast maps






NWS 48 Hr. Forecast Maps,

Regional Hourly Observations For NELSON County, Kentucky
Issued at 200 PM EDT SUN JUN 24 2018
NORTH CENTRAL KENTUCKY
  
CITY           SKY/WX    TMP DP  RH WIND       PRES   REMARKS
LOUISVILLE/SDF PTSUNNY   86  67  52 W8        29.97S                  
LOUISVILLE/LOU FAIR      85  67  54 VRB3      29.97F                  
FORT KNOX      FAIR      83  68  60 SW5       29.98S                  


Current NOWCAST not available:
Nowcasts are not issued routinely during fair weather. Only when
precipitation or other significant weather is occuring in this county will these
forecasts be issued. Currently, there is no short term forecast in effect.


Fire Weather Forecast For NELSON County, KY
Provided by the National Weather Service:

Issued at: Sun Jun 24 14:05:01 EDT 2018

330 AM EDT Sun Jun 24 2018

                      Today        Tonight      Mon          

CLOUD COVER           PCldy        PCldy        MCldy        
PRECIP TYPE           NONE         tstms        tstms        
CHANCE PRECIP (%)     0            40           40           
TEMP (24H TREND)      87 (+6)      65 (-1)      83           
RH % (24H TREND)      52 (-7)      100 (0)      60           
20FTWND-VAL/AM(MPH)   Lgt/Var                   Lgt/Var      
20FTWND-RDG/PM(MPH)   NW  5        Lgt/Var      Lgt/Var      
PRECIP AMOUNT         0.00         0.05         0.11         
MIXING HGT(FT-AGL/MSL)7151                      6121         
TRANSPORT WND (MPH)   W 10                      NE 14        
VENT RATE (KT-FT)     80028                     63151        
DISPERSION            Good                      Good         
DSI                   SLGT UNSTBL  SLGT UNSTBL  SLGT UNSTBL  
LAL                   2            4            4            
HAINES INDEX          3            3            2            
ADI EARLY             40 FAIR      3 VERY POOR  19 GEN POOR  
ADI LATE              52 GEN GOOD  9 POOR       41 GEN GOOD  
MAX LVORI EARLY       9            6            5            
MAX LVORI LATE        2            7            3            

REMARKS...ADI IS ATMOSPHERIC DISPERSION INDEX BY LAVDAS.        
LVORI IS LOW VISIBILITY OCCURRENCE RISK INDEX.

.TUESDAY...Mostly cloudy. A 50 percent chance of showers and
thunderstorms. Lows in the upper 60s. Highs in the upper 80s.
East winds around 5 mph. 
.WEDNESDAY...Mostly cloudy. A 50 percent chance of showers and
thunderstorms. Lows in the lower 70s. Highs in the upper 80s.
South winds around 5 mph. 
.THURSDAY...Partly cloudy. Lows in the lower 70s. Highs in the
lower 90s. West winds up to 10 mph. 
.FRIDAY...Partly cloudy. A 30 percent chance of showers and
thunderstorms. Lows in the lower 70s. Highs in the lower 90s.
Southwest winds up to 5 mph. 
.SATURDAY...Partly cloudy. Lows in the mid 70s. Highs in the
lower 90s. South winds up to 5 mph. 

SPC's Fire Weather Web Tool (Excellent!), SPC's Fire Weather Outlooks, NWS Fire Weather WEB, Fire Danger Class Map,
Keetch-Byram Drought Index, ROMAN Web, Haines Index ,
WFAS's 10-hr Dead Fuel Moist., WFAS's 100-hr Dead Fuel Moist., Probablity of Ignition, Visual blackness Map, Palmer Drought Index, HPC's Rainfall Forecast Maps


Hazardous Weather Outlook For NELSON County, Kentucky
320 AM EDT Sun Jun 24 2018 /220 AM CDT Sun Jun 24 2018/

 DAY ONE  Today and Tonight.

Scattered to numerous storms will be possible late this afternoon
into tonight as a weather system approaches from the west. Gusty
winds, small hail, and heavy downpours will accompany the strongest
storms.

 DAYS TWO THROUGH SEVEN  Monday through Saturday.

Scattered storms are expected each day. Heavy downpours, gusty 
winds, and small hail will accompany the strongest storms.

 SPOTTER INFORMATION STATEMENT  

Spotter activation is not expected today.

Latest NELSON County, Kentucky Watches, Warnings and Advisories.
Additional Drought Info.: UKAWC Drought Page, Kentucky Drought Watch


7-Day Forecast For NELSON County, KY

THIS AFTERNOON
Partly cloudy. Highs in the upper 80s. West winds 5 to 10 mph.

TONIGHT
Partly cloudy with a 50 percent chance of showers and thunderstorms. Lows in the upper 60s. Northeast winds up to 5 mph.

MONDAY
Mostly cloudy with a 50 percent chance of showers and thunderstorms. Highs in the mid 80s. East winds around 5 mph.

MONDAY NIGHT
Partly cloudy. Lows in the upper 60s. East winds up to 5 mph.

TUESDAY
Partly cloudy with a 50 percent chance of showers and thunderstorms. Highs in the upper 80s. South winds 5 to 10 mph.

TUESDAY NIGHT
Partly cloudy with a 50 percent chance of showers and thunderstorms. Lows in the lower 70s.

WEDNESDAY
Partly cloudy with a 40 percent chance of showers and thunderstorms. Highs in the upper 80s.

WEDNESDAY NIGHT
Partly cloudy. Lows in the lower 70s.

THURSDAY
Partly cloudy with a 20 percent chance of showers and thunderstorms. Highs in the lower 90s.

THURSDAY NIGHT
Partly cloudy with a 20 percent chance of showers and thunderstorms. Lows in the lower 70s.

FRIDAY
Partly cloudy. Highs in the lower 90s.

FRIDAY NIGHT
Partly cloudy. Lows in the mid 70s.

SATURDAY
Partly cloudy. Highs in the lower 90s.

Ag Weather Center, Department of Biosystems & Agricultural Engineering, University of Kentucky